Weather in Sagan-Nur

Russia / Republic of Buryatia     51°20′48″N   108°26′04″E
temp.,
°C
wind,
m/s
gust,
m/s
humid.,
%
clouds,
%
prec.,
mm/h
press.,
hPa
HPBL,
m
14 april, wed
wed1423:00+2nw3656100 0.0 1013359
02:000wnw61178100 0.1 1015947
05:00−2nw61076100 0.1 1016865
08:00−2nw5867100 0.1 1017720
11:00+1nnw5638100 0.0 10171547
14:00+3nnw6628100 0.0 10152348
17:00+2nw7733100 0.0 10141982
20:00−1nw5945100 0.0 1017981
15 april, thu
thu1523:00−3wnw2757100 0.0 1018201
02:00−6w367250 0.0 1017128
05:00−8w25905 0.0 1017118
08:00−4w35705 0.0 1015413
11:00+2w4736100 0.0 10121651
14:00+4w5629100 0.0 10102387
17:00+1nw6868100 0.8 1012995
20:00−2nw5117914 1.1 1016733
16 april, fri
fri1623:00−3nw511655 0.0 1019641
02:00−5nw512805 0.0 1022587
05:00−7wnw388965 0.0 1024236
08:00−4w48705 0.0 1025576
11:00+2w673963 0.0 10221574
14:00+5wsw562987 0.0 10191924
17:00+7w562727 0.0 10171684
20:00+2w22480 0.0 101810
17 april, sat
sat1723:000s11590 0.0 101810
02:00−2sse11565 0.0 101711
05:00−3sse11595 0.0 101611
08:00+3sse12445 0.0 1014193
11:00+10sw46313 0.0 10101174
14:00+13w67270 0.0 10071644
17:00+13w45255 0.0 10061807
20:00+7nw22380 0.0 100710
18 april, sun
sun1823:00+4n11475 0.0 100910
02:00+3nw1153100 0.0 101010
05:00+1nnw1174100 0.0 101212
08:00+3ne2365100 0.0 1012297
11:00+10e333837 0.0 1007960
14:00+15sse1225100 0.0 10031710
17:00+15w2125100 0.0 10021908
20:00+9n3544100 0.0 100580